• In Belarus
  • List of Countries
  • For 7 days
  • Water Temperature
  • Satellite Maps
  • Weather Map
  • Weather Widgets
  • user-avatar
    Login

    Hourly Weather Rangpur

    Today, 17 July, Tuesday

    Time Temperature Precipitation Wind Pressure Humidity
    00:00 +32°C° 0 mm 4 mps 747 mmHg 73%
    01:00 +32°C° 0 mm 4 mps 747 mmHg 75%
    02:00 +30°C° 0 mm 4 mps 747 mmHg 76%
    03:00 +30°C° 0 mm 4 mps 747 mmHg 77%
    04:00 +30°C° 0 mm 4 mps 747 mmHg 79%
    05:00 +30°C° 0 mm 4 mps 747 mmHg 80%
    06:00 +30°C° 0 mm 4 mps 747 mmHg 81%
    07:00 +32°C° 0 mm 4 mps 747 mmHg 76%
    08:00 +33°C° 0 mm 5 mps 747 mmHg 72%
    09:00 +34°C° 0 mm 5 mps 747 mmHg 68%
    10:00 +35°C° 0.1 mm 5 mps 747 mmHg 65%
    11:00 +36°C° 0.1 mm 5 mps 747 mmHg 61%
    12:00 +37°C° 0.1 mm 5 mps 747 mmHg 57%
    13:00 +37°C° 0 mm 5 mps 746 mmHg 56%
    14:00 +39°C° 0 mm 5 mps 745 mmHg 55%
    15:00 +39°C° 0 mm 5 mps 745 mmHg 54%
    16:00 +37°C° 0.6 mm 5 mps 745 mmHg 57%
    17:00 +37°C° 0.6 mm 5 mps 745 mmHg 60%
    18:00 +36°C° 0.6 mm 4 mps 745 mmHg 64%
    19:00 +35°C° 0.4 mm 4 mps 745 mmHg 67%
    20:00 +34°C° 0.4 mm 4 mps 746 mmHg 71%
    21:00 +33°C° 0.4 mm 4 mps 746 mmHg 75%
    22:00 +33°C° 1.4 mm 4 mps 747 mmHg 76%
    23:00 +33°C° 1.4 mm 4 mps 747 mmHg 78%

    Tomorrow, 18 July, Wednesday

    Time Temperature Precipitation Wind Pressure Humidity
    00:00 +32°C° 1.4 mm 4 mps 747 mmHg 80%
    01:00 +32°C° 1.2 mm 4 mps 747 mmHg 81%
    02:00 +30°C° 1.2 mm 4 mps 747 mmHg 82%
    03:00 +30°C° 1.2 mm 3 mps 747 mmHg 84%
    04:00 +30°C° 0.7 mm 3 mps 747 mmHg 84%
    05:00 +30°C° 0.7 mm 3 mps 747 mmHg 85%
    06:00 +30°C° 0.7 mm 3 mps 747 mmHg 86%
    07:00 +31°C° 0.1 mm 3 mps 747 mmHg 81%
    08:00 +33°C° 0.1 mm 3 mps 747 mmHg 76%
    09:00 +33°C° 0.1 mm 3 mps 748 mmHg 72%
    10:00 +35°C° 0 mm 3 mps 747 mmHg 66%
    11:00 +36°C° 0 mm 3 mps 747 mmHg 61%
    12:00 +37°C° 0 mm 4 mps 747 mmHg 56%
    13:00 +37°C° 0 mm 3 mps 746 mmHg 55%
    14:00 +38°C° 0 mm 3 mps 745 mmHg 54%
    15:00 +38°C° 0 mm 3 mps 745 mmHg 53%
    16:00 +38°C° 0 mm 3 mps 745 mmHg 55%
    17:00 +37°C° 0 mm 3 mps 744 mmHg 58%
    18:00 +37°C° 0 mm 2 mps 744 mmHg 60%
    19:00 +36°C° 0 mm 2 mps 745 mmHg 63%
    20:00 +35°C° 0 mm 2 mps 745 mmHg 67%
    21:00 +34°C° 0 mm 2 mps 746 mmHg 70%
    22:00 +34°C° 0.2 mm 2 mps 746 mmHg 72%
    23:00 +32°C° 0.2 mm 2 mps 746 mmHg 74%

    Day after tomorrow, 19 July, Thursday

    Time Temperature Precipitation Wind Pressure Humidity
    00:00 +32°C° 0.2 mm 2 mps 746 mmHg 76%
    01:00 +32°C° 2 mm 2 mps 746 mmHg 78%
    02:00 +31°C° 2 mm 2 mps 746 mmHg 80%
    03:00 +31°C° 2 mm 2 mps 746 mmHg 82%
    04:00 +31°C° 1 mm 2 mps 746 mmHg 83%
    05:00 +31°C° 1 mm 2 mps 746 mmHg 84%
    06:00 +30°C° 1 mm 2 mps 746 mmHg 85%
    07:00 +31°C° 0.7 mm 2 mps 746 mmHg 81%
    08:00 +33°C° 0.7 mm 3 mps 746 mmHg 78%
    09:00 +34°C° 0.7 mm 3 mps 747 mmHg 74%
    10:00 +35°C° 0 mm 3 mps 746 mmHg 69%
    11:00 +36°C° 0 mm 3 mps 746 mmHg 64%
    12:00 +37°C° 0 mm 3 mps 746 mmHg 60%
    13:00 +37°C° 0 mm 3 mps 745 mmHg 58%
    14:00 +38°C° 0 mm 2 mps 745 mmHg 56%
    15:00 +38°C° 0 mm 2 mps 744 mmHg 54%
    16:00 +38°C° 0 mm 2 mps 744 mmHg 55%
    17:00 +38°C° 0 mm 2 mps 744 mmHg 57%
    18:00 +36°C° 0 mm 1 mps 743 mmHg 59%
    19:00 +36°C° 0 mm 1 mps 744 mmHg 61%
    20:00 +35°C° 0 mm 1 mps 744 mmHg 63%
    21:00 +34°C° 0 mm 1 mps 745 mmHg 64%
    22:00 +34°C° 0.2 mm 1 mps 745 mmHg 66%
    23:00 +33°C° 0.2 mm 1 mps 745 mmHg 68%

    20 July, Friday

    Time Temperature Precipitation Wind Pressure Humidity
    00:00 +33°C° 0.2 mm 1 mps 745 mmHg 70%
    01:00 +33°C° 0.4 mm 1 mps 745 mmHg 71%
    02:00 +32°C° 0.4 mm 1 mps 745 mmHg 73%
    03:00 +32°C° 0.4 mm 1 mps 744 mmHg 74%
    04:00 +32°C° 0 mm 1 mps 744 mmHg 76%
    05:00 +32°C° 0 mm 1 mps 744 mmHg 77%
    06:00 +31°C° 0 mm 1 mps 744 mmHg 79%
    07:00 +32°C° 0 mm 2 mps 745 mmHg 75%
    08:00 +34°C° 0 mm 2 mps 745 mmHg 71%
    09:00 +35°C° 0 mm 2 mps 745 mmHg 67%
    10:00 +36°C° 0 mm 3 mps 745 mmHg 64%
    11:00 +37°C° 0 mm 3 mps 745 mmHg 60%
    12:00 +38°C° 0 mm 3 mps 745 mmHg 56%
    13:00 +38°C° 0 mm 3 mps 744 mmHg 54%
    14:00 +38°C° 0 mm 2 mps 743 mmHg 53%
    15:00 +39°C° 0 mm 2 mps 743 mmHg 52%
    16:00 +39°C° 0 mm 2 mps 743 mmHg 53%
    17:00 +38°C° 0 mm 2 mps 743 mmHg 54%
    18:00 +38°C° 0 mm 2 mps 743 mmHg 55%
    19:00 +37°C° 0 mm 2 mps 743 mmHg 58%
    20:00 +36°C° 0 mm 2 mps 744 mmHg 60%
    21:00 +36°C° 0 mm 2 mps 745 mmHg 63%
    22:00 +35°C° 0 mm 2 mps 745 mmHg 64%
    23:00 +35°C° 0 mm 2 mps 745 mmHg 66%

    21 July, Saturday

    Time Temperature Precipitation Wind Pressure Humidity
    00:00 +34°C° 0 mm 2 mps 745 mmHg 68%
    01:00 +34°C° 0.1 mm 2 mps 744 mmHg 69%
    02:00 +34°C° 0.1 mm 2 mps 744 mmHg 71%
    03:00 +32°C° 0.1 mm 2 mps 743 mmHg 73%
    04:00 +32°C° 0.4 mm 2 mps 743 mmHg 75%
    05:00 +32°C° 0.4 mm 2 mps 743 mmHg 78%
    06:00 +31°C° 0.4 mm 2 mps 744 mmHg 80%
    07:00 +32°C° 0.4 mm 2 mps 744 mmHg 78%
    08:00 +34°C° 0.4 mm 3 mps 744 mmHg 75%
    09:00 +34°C° 0.4 mm 3 mps 745 mmHg 73%
    10:00 +35°C° 0.1 mm 3 mps 744 mmHg 68%
    11:00 +37°C° 0.1 mm 3 mps 744 mmHg 62%
    12:00 +38°C° 0.1 mm 2 mps 744 mmHg 57%
    13:00 +38°C° 0 mm 2 mps 743 mmHg 55%
    14:00 +39°C° 0 mm 2 mps 743 mmHg 53%
    15:00 +39°C° 0 mm 2 mps 742 mmHg 50%
    16:00 +39°C° 0 mm 2 mps 742 mmHg 52%
    17:00 +39°C° 0 mm 1 mps 742 mmHg 53%
    18:00 +37°C° 0 mm 1 mps 742 mmHg 54%
    19:00 +37°C° 0 mm 1 mps 742 mmHg 56%
    20:00 +36°C° 0 mm 1 mps 743 mmHg 58%
    21:00 +35°C° 0 mm 1 mps 743 mmHg 60%
    22:00 +35°C° 0 mm 1 mps 743 mmHg 62%
    23:00 +34°C° 0 mm 1 mps 743 mmHg 63%

    22 July, Sunday

    Time Temperature Precipitation Wind Pressure Humidity
    00:00 +35°C° 0 mm 2 mps 743 mmHg 65%
    01:00 +33°C° 0.1 mm 1 mps 743 mmHg 67%
    02:00 +33°C° 0.1 mm 1 mps 743 mmHg 69%
    03:00 +33°C° 0.1 mm 1 mps 742 mmHg 70%
    04:00 +33°C° 0 mm 1 mps 743 mmHg 72%
    05:00 +32°C° 0 mm 1 mps 743 mmHg 73%
    06:00 +32°C° 0 mm 2 mps 743 mmHg 74%
    07:00 +34°C° 0 mm 2 mps 743 mmHg 70%
    08:00 +35°C° 0 mm 2 mps 743 mmHg 67%
    09:00 +36°C° 0 mm 2 mps 743 mmHg 63%
    10:00 +37°C° 0 mm 3 mps 743 mmHg 59%
    11:00 +38°C° 0 mm 3 mps 743 mmHg 55%
    12:00 +40°C° 0 mm 3 mps 743 mmHg 51%
    13:00 +40°C° 0 mm 3 mps 742 mmHg 49%
    14:00 +41°C° 0 mm 4 mps 742 mmHg 48%
    15:00 +42°C° 0 mm 4 mps 741 mmHg 46%
    16:00 +41°C° 0 mm 4 mps 741 mmHg 49%
    17:00 +40°C° 0 mm 4 mps 741 mmHg 53%
    18:00 +40°C° 0 mm 4 mps 741 mmHg 56%
    19:00 +38°C° 0 mm 4 mps 742 mmHg 58%
    20:00 +37°C° 0 mm 4 mps 742 mmHg 60%
    21:00 +36°C° 0 mm 4 mps 743 mmHg 62%
    22:00 +35°C° 0.3 mm 5 mps 743 mmHg 63%
    23:00 +34°C° 0.3 mm 5 mps 743 mmHg 63%
    Show more